Location: ??????
(55.2000°N, 38.3000°E)
Time: 00:08:57
(UTC+00:00)

Lacrosse 4 Rocket - Pass Details

Date: 15 November 2025
Orbit: 513 x 567 km, 68.0° (Epoch: 12 December)

Event Time Altitude Azimuth Distance (km) Brightness Sun altitude
Exits shadow 01:10:23 15° 37° (NE) 1,509 4.0 -32.2°
Drops below altitude 10° 01:11:50 10° 57° (ENE) 1,787 4.7 -32.0°
Sets 01:14:41 0° 79° (E) 2,664 6.0 -31.6°
